Tracking 22779 objects as of 12-Apr-2021
HD Live streaming from Space Station
objects crossing your sky now

STARLINK-1805

Track STARLINK-1805 now!
10-day predictions
STARLINK-1805 is classified as:


NORAD ID: 46705
Int'l Code: 2020-073AM
Perigee: 553.2 km
Apogee: 555.5 km
Inclination: 53.1 °
Period: 95.6 minutes
Semi major axis: 6925 km
RCS: Unknown
Launch date: October 18, 2020
Source: United States (US)
Launch site: AIR FORCE EASTERN TEST RANGE (AFETR)
aabbcc
Your satellite tracking list
Your tracking list is empty




NASA's NSSDC Master Catalog

Two Line Element Set (TLE):
1 46705U 20073AM  21101.90553750  .00000663  00000-0  63434-4 0  9992
2 46705  53.0576  24.7482 0001665  77.2532 282.8643 15.06402420 26703
Source of the keplerian elements: AFSPC